Weather History for KFHR - June, 2013

Change the Weather History Date:

Friday, June 21, 2013

  Actual Average Record
Temperature  
Mean Temperature 56 °F -  
Max Temperature 64 °F 65 °F 78 °F (1998)
Min Temperature 48 °F 45 °F 42 °F (2014)
Degree Days  
Heating Degree Days 9    
Growing Degree Days 6 (Base 50)    
Moisture  
Dew Point 51 °F    
Average Humidity 83    
Maximum Humidity 97    
Minimum Humidity 65    
Precipitation  
Precipitation 0.00 in - - ()
Sea Level Pressure  
Sea Level Pressure 30.15 in    
Wind  
Wind Speed 6 mph (SSW)    
Max Wind Speed 9 mph    
Max Gust Speed -    
Visibility 10 miles    
Events      
Averages and records for this station are not official NWS values.
T = Trace of Precipitation, MM = Missing Value Source: NWS Daily Summary

Daily Weather History Graph

Daily Weather History Graph

Search for Another Location

Airport or City:

Trip Planner

Search our weather history database for the weather conditions in past years. The results will help you decide how hot, cold, wet, or windy it might be!

Date:

Astronomy

Jun. 21, 2013 Rise Set
Actual Time 5:10 AM PDT 9:17 PM PDT
Civil Twilight 4:28 AM PDT 9:59 PM PDT
Nautical Twilight 3:28 AM PDT 10:59 PM PDT
Astronomical Twilight 1:24 AM PDT 1:02 AM PDT
Moon 7:28 PM PDT (6/21) 3:38 AM PDT (6/21)
Length of Visible Light 17h 31m
Length of Day
16h 07m
Waxing Gibbous, 96% of the Moon is Illuminated
Jun 21
Waxing Gibbous
Jun 23
Full
Jun 29
Last Quarter
Jul 8
New
Jul 15
First Quarter

Hourly Weather History & Observations

Time (PDT) Temp. Dew Point Humidity Pressure Visibility Wind Dir Wind Speed Gust Speed Precip Events Conditions
12:53 AM 52.0 °F 48.9 °F 89% 30.10 in 10.0 mi WSW 5.8 mph - N/A   Overcast
1:53 AM 52.0 °F 50.0 °F 93% 30.11 in 10.0 mi SW 5.8 mph - N/A   Overcast
2:53 AM 52.0 °F 50.0 °F 93% 30.11 in 10.0 mi Variable 3.5 mph - N/A   Overcast
3:53 AM 52.0 °F 48.9 °F 89% 30.12 in 10.0 mi SW 6.9 mph - N/A   Overcast
4:53 AM 52.0 °F 48.9 °F 89% 30.12 in 10.0 mi SW 9.2 mph - N/A   Overcast
5:40 AM 51.8 °F 48.2 °F 88% 30.12 in 10.0 mi SW 6.9 mph - N/A   Overcast
5:53 AM 51.1 °F 50.0 °F 96% 30.13 in 10.0 mi SSW 6.9 mph - N/A   Overcast
6:29 AM 51.8 °F 50.0 °F 94% 30.14 in 10.0 mi SSW 6.9 mph - N/A   Overcast
6:53 AM 52.0 °F 50.0 °F 93% 30.15 in 10.0 mi South 6.9 mph - N/A   Overcast
7:04 AM 51.8 °F 50.0 °F 94% 30.15 in 10.0 mi SSW 5.8 mph - N/A   Overcast
7:35 AM 53.6 °F 51.8 °F 94% 30.15 in 10.0 mi South 6.9 mph - N/A   Overcast
7:53 AM 53.1 °F 51.1 °F 93% 30.16 in 10.0 mi SSW 5.8 mph - N/A   Overcast
8:33 AM 55.4 °F 51.8 °F 88% 30.17 in 10.0 mi South 5.8 mph - N/A   Overcast
8:53 AM 55.9 °F 52.0 °F 87% 30.17 in 10.0 mi South 8.1 mph - N/A   Overcast
9:24 AM 57.2 °F 51.8 °F 82% 30.16 in 10.0 mi South 5.8 mph - N/A   Overcast
9:53 AM 57.9 °F 52.0 °F 81% 30.17 in 10.0 mi SW 8.1 mph - N/A   Overcast
10:53 AM 59.0 °F 52.0 °F 78% 30.17 in 10.0 mi Variable 4.6 mph - N/A   Overcast
11:08 AM 60.8 °F 51.8 °F 72% 30.18 in 10.0 mi SSE 9.2 mph - N/A   Overcast
11:53 AM 61.0 °F 53.1 °F 75% 30.19 in 10.0 mi SE 5.8 mph - N/A   Overcast
12:36 PM 62.6 °F 53.6 °F 72% 30.18 in 10.0 mi SSE 5.8 mph - N/A   Overcast
12:53 PM 62.1 °F 52.0 °F 70% 30.18 in 10.0 mi South 5.8 mph - N/A   Overcast
1:53 PM 63.0 °F 52.0 °F 67% 30.18 in 10.0 mi SW 9.2 mph - N/A   Overcast
2:53 PM 64.0 °F 52.0 °F 65% 30.19 in 10.0 mi SW 8.1 mph - N/A   Partly Cloudy
3:53 PM 64.0 °F 52.0 °F 65% 30.18 in 10.0 mi SSW 6.9 mph - N/A   Clear
4:53 PM 64.0 °F 52.0 °F 65% 30.17 in 10.0 mi Variable 5.8 mph - N/A   Clear
5:53 PM 63.0 °F 51.1 °F 65% 30.16 in 10.0 mi SW 4.6 mph - N/A   Clear
6:53 PM 61.0 °F 51.1 °F 70% 30.16 in 10.0 mi SW 3.5 mph - N/A   Clear
7:53 PM 60.1 °F 50.0 °F 69% 30.15 in 10.0 mi SSW 4.6 mph - N/A   Clear
8:53 PM 55.0 °F 50.0 °F 83% 30.15 in 10.0 mi SW 3.5 mph - N/A   Clear
9:53 PM 50.0 °F 48.0 °F 93% 30.16 in 10.0 mi Calm Calm - N/A   Clear
10:53 PM 48.9 °F 48.0 °F 97% 30.16 in 10.0 mi Calm Calm - N/A   Clear
11:53 PM 48.0 °F 46.0 °F 93% 30.14 in 10.0 mi Calm Calm - N/A   Clear